AirNav   Duncan Aviation - Near you to keep you flying
 
 1673 users online  

09W South Capitol Street Heliport
Washington, District of Columbia, USA

GOING TO WASHINGTON?


FAA INFORMATION EFFECTIVE 27 JANUARY 2022

Location

FAA Identifier: 09W
Lat/Long: 38-52-07.4040N 077-00-26.9130W
38-52.123400N 077-00.448550W
38.8687233,-77.0074758
(estimated)
Elevation: 10 ft. / 3.0 m (surveyed)
Variation: 09W (1985)
Time zone: UTC -5 (UTC -4 during Daylight Saving Time)
Zip code: 20398

Heliport Operations

Heliport use: Open to the public
Activation date: 04/1974
Control tower: no
ARTCC: WASHINGTON CENTER
FSS: LEESBURG FLIGHT SERVICE STATION
NOTAMs facility: DCA (NOTAM-D service available)
Attendance: MON-FRI 0700-1900, ALL SAT-SUN 1100-1900
OPEN HOLIDAYS UPON RESERVATION.
Wind indicator: lighted
Segmented circle: no
Lights: SS-SR
Beacon: white-green-yellow (heliport)
Operates sunset to sunrise.

Heliport Communications

CTAF/UNICOM: 123.05
WX ASOS at DCA (1.8 nm SW): 132.65 (703-418-1177)
WX AWOS-3 at CGS (8 nm NE): 121.225 (301-864-5497)
WX AWOS-3 at FME (17 nm NE): 123.925
WX AWOS-3PT at GAI (19 nm N): 128.275 (301-977-2971)

Nearby radio navigation aids

VOR radial/distance  VOR name  Freq  Var
DCAr077/1.5WASHINGTON VOR/DME111.0009W
ADWr309/7.6ANDREWS VORTAC113.1010W
OTTr318/15.7NOTTINGHAM VORTAC113.7010W
AMLr108/21.8ARMEL VOR/DME113.5008W
BALr233/24.3BALTIMORE VORTAC115.1011W
BRVr036/35.8BROOKE VORTAC114.5009W
FDKr160/(36.8)FREDERICK VOR109.0008W
EMIr190/37.6WESTMINSTER VORTAC117.9008W

 
NDB name  Hdg/Dist  Freq  Var  ID
OXONN020/6.233211WDCA -.. -.-. .-
GEORGETOWN133/6.632309WGTN --. - -.
DAVEE030/13.322309WDAA -.. .- .-
ELLICOTT214/27.337111WFND ..-. -. -..

Heliport Services

Fuel available: A
Airframe service: NONE
Powerplant service: NONE

Runway Information

Helipad H1

Dimensions: 60 x 60 ft. / 18 x 18 m
Surface: asphalt, in good condition
Runway edge lights: PERI
Latitude: 38-52.123400N
Longitude: 077-00.448550W
Elevation: 10.0 ft.
Traffic pattern: leftleft
Markings: , in fair condition
Approach lights: RLLS

Heliport Ownership and Management from official FAA records

Ownership: Privately-owned
Owner: SOUTH CAPITOL STREET HELIPORT, LLC
115 VALLEYVIEW RD
FAIRFIELD, CT 06824
Phone 203-856-6407
Manager: DON SCIMONELLI
1724 S CAPITAL ST SE
WASHINGTON, DC 20003
Phone 202-484-8616

Heliport Operational Statistics

Aircraft based on the field: 1
Helicopters: 1
    
Aircraft operations: avg 33/month *
50% transient general aviation
50% local general aviation
* for 12-month period ending 05 December 1997

Additional Remarks

A52-H1 75 FT LGTD BRIDGE 500 FT E; + 50 FT STACK 400 FT W; +40 FT BLDG 60 FT NE.
INGRESS & EGRESS ROUTES NE & SW OVER ANACOSTIA RIVER.
LARGE LOOSE GRAVEL SOUTH & WEST OF PAVEMENT.
FOR CD CTC POTOMAC APCH AT 866-599-3874.

Instrument Procedures

There are no published instrument procedures at 09W.

Some nearby airports with instrument procedures:

KDCA - Ronald Reagan Washington National Airport (2 nm SW)
KADW - Joint Base Andrews (7 nm SE)
KVKX - Potomac Airfield (8 nm S)
KCGS - College Park Airport (8 nm NE)
W32 - Washington Executive Airport/Hyde Field (8 nm SE)
W00 - Freeway Airport (12 nm E)
KDAA - Davison Army Airfield (12 nm SW)
2W5 - Maryland Airport (17 nm S)
KFME - Tipton Airport (17 nm NE)
KGAI - Montgomery County Airpark (19 nm N)
 
Loc | Ops | Rwys | IFR | FBO | Links
Com | Nav | Svcs | Stats | Notes
Area around 09W (South Capitol Street Heliport)
 
Road maps at: MapQuest Bing Google
 
Aerial photo
WARNING: Photo may not be current or correct
Aerial photo of 09W (South Capitol Street Heliport)
Photo courtesy of Steven Bussman
Bussman Aviation
Photo taken 29-Apr-2012
looking northeast.

Do you have a better or more recent aerial photo of South Capitol Street Heliport that you would like to share? If so, please send us your photo.

 
Sectional chart

 
Airport distance calculator
Flying to South Capitol Street Heliport? Find the distance to fly.

From to 09W

Sunrise and sunset
Times for 28-Jan-2022
 Local
(UTC-5)
 Zulu
(UTC)
Morning civil twilight06:5011:50
Sunrise07:1912:19
Sunset17:2322:23
Evening civil twilight17:5222:52

Current date and time
Zulu (UTC)  28-Jan-2022 23:39:14
Local (UTC-5)  28-Jan-2022 18:39:14
 
METAR
KDCA 
2nm SW 
282313Z 04006KT 3/4SM R01/P6000FT -SN BR SCT010 OVC022 01/M01 A3000 RMK AO2 SFC VIS 1 3/4 P0000 T00061006
KADW 
7nm SE 
282256Z 04004KT 1 7/8SM -SN BR OVC004 00/M00 A2996 RMK AO2A CIG 002 RWY19R SLP155 P0002 T00001001 $
KCGS 
8nm NE 
282315Z AUTO 00000KT 2SM OVC007 00/M01 A2999 RMK AO1 T00001010
KDAA 
12nm SW 
282256Z 00000KT 2SM -SN OVC014 01/M00 A2998 RMK A02A SLP156
KFME 
17nm NE 
282315Z AUTO 06003KT 2SM OVC005 00/00 A3002 RMK AO1
KGAI 
19nm N 
282313Z AUTO 00000KT 1 3/4SM -SN BR BKN006 OVC017 00/M01 A2998 RMK AO2 CIG 004V010 P0000 FZRANO
TAF
KDCA 
2nm SW 
282100Z 2821/2924 03006KT 1SM -SN OVC008 FM290100 01009KT 2SM -SN OVC008 FM290800 01010G22KT P6SM OVC015 FM291100 34014G27KT P6SM OVC030 FM291900 32017G35KT P6SM SCT250
KADW 
7nm SE 
282100Z 2821/2923 01006KT 3200 -SN SCT005 OVC008 650109 QNH2998INS TEMPO 2821/2903 1600 SN OVC005 650059 BECMG 2905/2906 36010G20KT 4800 -SN SCT005 OVC010 640109 510053 QNH2983INS BECMG 2908/2909 35020G25KT 9999 NSW FEW006 OVC015 620158 510053 QNH2978INS BECMG 2912/2913 34020G35KT 9999 FEW015 OVC040 620406 520004 QNH2980INS TX00/2821Z TNM09/2914Z
KDAA 
12nm SW 
282100Z 2821/3003 VRB06KT 1600 -SN OVC010 620109 QNH2997INS BECMG 2823/2824 VRB06KT 9000 -SN OVC009 650094 620505 QNH2997INS BECMG 2900/2901 VRB06KT 4800 -SN OVC007 650094 620505 QNH2991INS BECMG 2904/2905 01006KT 9000 -SN OVC009 620093 QNH2985INS BECMG 2907/2908 35012KT 9000 -SN SCT009 OVC015 620155 QNH2981INS BECMG 2912/2913 33012KT 9999 NSW FEW020 BKN035 OVC050 QNH2986INS BECMG 2914/2915 32012G18KT 9999 FEW060 SCT090 OVC120 QNH2989INS BECMG 2915/2916 32020G35KT 9999 SCT110 OVC200 520003 QNH29
NOTAMs
Click for the latest NOTAMs
NOTAMs are issued by the DoD/FAA and will open in a separate window not controlled by AirNav.

 

 
 

FBO, Fuel Providers, and Aircraft Ground Support

  
 Business Name 
 
 Contact 
 
 Services / Description 
 
Fuel Prices
 
Comments
  
South Capitol Street Heliport FBO 202-484-8616
202-527-8687
[email]

Like us on facebook
Airport management, Aviation fuel, Aircraft parking (ramp or tiedown), Hangars, Hangar leasing / sales, Passenger terminal and lounge, ...
 
U.S. Government AIR Card   Titan Contract Fuel  
 
More info about South Capitol Street Heliport FBO
Titan
Jet A
AS $8.04 
 Updated 05-Jan-2022
 
   write
AS=Assisted/Self Service
Update Fuel Prices
 

Would you like to see your business listed on this page?

 If your business provides an interesting product or service to pilots, flight crews, aircraft, or users of the South Capitol Street Heliport, you should consider listing it here.  To start the listing process, click on the button below
 
Add a business
 

Other Pages about South Capitol Street Heliport

Update a link
 
Copyright © AirNav, LLC. All rights reserved. Privacy Policy  Contact